Time,TemperatureF,DewpointF,PressureIn,WindDirection,WindDirectionDegrees,WindSpeedMPH,WindSpeedGustMPH,Humidity,HourlyPrecipIn,Conditions,Clouds,dailyrainin,SoftwareType,DateUTC
2013-01-18 00:00:00,34.4,33.9,30.16,WNW,302,6.0,6.0,98,0.00,,,1.84,Wunderground v.1.15,2013-01-18 05:00:00,
2013-01-18 00:02:00,34.4,33.9,30.16,WNW,298,2.0,6.0,98,0.00,,,0.00,Wunderground v.1.15,2013-01-18 05:02:00,
2013-01-18 00:03:00,34.4,33.9,30.16,WNW,292,2.0,15.0,98,0.00,,,-99.99,WeatherLink 6.0.0,2013-01-18 05:03:00,
2013-01-18 00:09:00,34.4,33.9,30.16,West,275,5.0,6.0,98,0.00,,,0.00,Wunderground v.1.15,2013-01-18 05:09:00,
2013-01-18 00:15:00,34.4,33.9,30.17,NW,307,1.0,3.0,98,0.00,,,0.00,Wunderground v.1.15,2013-01-18 05:15:00,
2013-01-18 00:20:00,34.4,33.9,30.18,NW,312,1.0,2.0,98,0.00,,,0.00,Wunderground v.1.15,2013-01-18 05:20:00,
2013-01-18 00:25:00,34.4,33.9,30.18,NW,305,3.0,3.0,98,0.00,,,0.00,Wunderground v.1.15,2013-01-18 05:25:00,
2013-01-18 00:31:00,34.4,33.6,30.18,WNW,300,2.0,2.0,97,0.00,,,0.00,Wunderground v.1.15,2013-01-18 05:31:00,
2013-01-18 00:37:00,34.7,33.9,30.19,NW,306,4.0,5.0,97,0.00,,,0.00,Wunderground v.1.15,2013-01-18 05:37:00,
2013-01-18 00:43:00,34.9,34.1,30.19,WNW,303,3.0,4.0,97,0.00,,,0.00,Wunderground v.1.15,2013-01-18 05:43:00,
2013-01-18 00:48:00,35.1,34.1,30.20,NW,309,2.0,5.0,96,0.00,,,0.00,Wunderground v.1.15,2013-01-18 05:48:00,
2013-01-18 00:54:00,35.3,33.7,30.20,WNW,292,4.0,4.0,94,0.00,,,0.00,Wunderground v.1.15,2013-01-18 05:54:00,
2013-01-18 00:59:00,35.5,33.7,30.20,WNW,296,9.0,9.0,93,0.00,,,0.00,Wunderground v.1.15,2013-01-18 05:59:00,
2013-01-18 01:04:00,35.7,33.6,30.21,NW,311,2.0,6.0,92,0.00,,,0.00,Wunderground v.1.15,2013-01-18 06:04:00,
2013-01-18 01:10:00,35.7,33.3,30.21,NW,304,9.0,9.0,91,0.00,,,0.00,Wunderground v.1.15,2013-01-18 06:10:00,
2013-01-18 01:15:00,35.9,33.0,30.21,NNW,336,3.0,9.0,89,0.00,,,0.00,Wunderground v.1.15,2013-01-18 06:15:00,
2013-01-18 01:21:00,36.1,32.9,30.21,WNW,287,8.0,8.0,88,0.00,,,0.00,Wunderground v.1.15,2013-01-18 06:21:00,
2013-01-18 01:26:00,36.1,32.6,30.21,NW,319,7.0,8.0,87,0.00,,,0.00,Wunderground v.1.15,2013-01-18 06:26:00,
2013-01-18 01:32:00,36.2,32.1,30.22,WNW,302,3.0,6.0,85,0.00,,,0.00,Wunderground v.1.15,2013-01-18 06:32:00,
2013-01-18 01:37:00,36.4,32.0,30.22,NW,309,2.0,6.0,84,0.00,,,0.00,Wunderground v.1.15,2013-01-18 06:37:00,
2013-01-18 01:42:00,36.3,31.6,30.22,NW,307,2.0,4.0,83,0.00,,,0.00,Wunderground v.1.15,2013-01-18 06:42:00,
2013-01-18 01:48:00,36.3,31.6,30.22,WNW,302,2.0,5.0,83,0.00,,,0.00,Wunderground v.1.15,2013-01-18 06:48:00,
2013-01-18 01:53:00,36.3,31.6,30.23,WNW,286,0.0,3.0,83,0.00,,,0.00,Wunderground v.1.15,2013-01-18 06:53:00,
2013-01-18 01:59:00,36.3,31.0,30.23,WNW,303,3.0,6.0,81,0.00,,,0.00,Wunderground v.1.15,2013-01-18 06:59:00,
2013-01-18 02:04:00,36.4,31.4,30.24,NW,313,3.0,4.0,82,0.00,,,0.00,Wunderground v.1.15,2013-01-18 07:04:00,
2013-01-18 02:09:00,36.2,30.9,30.24,WNW,292,1.0,5.0,81,0.00,,,0.00,Wunderground v.1.15,2013-01-18 07:09:00,
2013-01-18 02:14:00,36.2,30.6,30.25,WNW,303,3.0,6.0,80,0.00,,,0.00,Wunderground v.1.15,2013-01-18 07:14:00,
2013-01-18 02:19:00,36.2,30.6,30.24,NW,319,2.0,7.0,80,0.00,,,0.00,Wunderground v.1.15,2013-01-18 07:19:00,
2013-01-18 02:24:00,36.2,30.9,30.24,WNW,302,2.0,5.0,81,0.00,,,0.00,Wunderground v.1.15,2013-01-18 07:24:00,
2013-01-18 02:29:00,36.1,30.5,30.25,NW,315,2.0,6.0,80,0.00,,,0.00,Wunderground v.1.15,2013-01-18 07:29:00,
2013-01-18 02:34:00,36.1,30.5,30.25,NW,314,9.0,11.0,80,0.00,,,0.00,Wunderground v.1.15,2013-01-18 07:34:00,
2013-01-18 02:39:00,36.2,30.0,30.25,WNW,287,8.0,12.0,78,0.00,,,0.00,Wunderground v.1.15,2013-01-18 07:39:00,
2013-01-18 02:44:00,36.3,30.4,30.25,WNW,286,10.0,14.0,79,0.00,,,0.00,Wunderground v.1.15,2013-01-18 07:44:00,
2013-01-18 02:49:00,36.2,29.7,30.26,NW,319,7.0,16.0,77,0.00,,,0.00,Wunderground v.1.15,2013-01-18 07:49:00,
2013-01-18 02:54:00,36.2,29.7,30.26,NW,325,12.0,15.0,77,0.00,,,0.00,Wunderground v.1.15,2013-01-18 07:54:00,
2013-01-18 02:59:00,36.1,29.9,30.26,WNW,283,7.0,15.0,78,0.00,,,0.00,Wunderground v.1.15,2013-01-18 07:59:00,
2013-01-18 03:00:00,36.1,29.9,30.26,NW,315,7.0,16.0,78,0.00,,,-99.99,WeatherLink 6.0.0,2013-01-18 08:00:00,
2013-01-18 03:04:00,35.9,29.7,30.26,WNW,291,4.0,10.0,78,0.00,,,0.00,Wunderground v.1.15,2013-01-18 08:04:00,
2013-01-18 03:09:00,35.6,29.7,30.27,WNW,300,3.0,10.0,79,0.00,,,0.00,Wunderground v.1.15,2013-01-18 08:09:00,
2013-01-18 03:14:00,35.6,29.4,30.27,NNE,13,5.0,6.0,78,0.00,,,0.00,Wunderground v.1.15,2013-01-18 08:14:00,
2013-01-18 03:19:00,35.6,29.4,30.27,NNW,338,0.0,10.0,78,0.00,,,0.00,Wunderground v.1.15,2013-01-18 08:19:00,
2013-01-18 03:24:00,35.5,29.0,30.27,NW,305,3.0,15.0,77,0.00,,,0.00,Wunderground v.1.15,2013-01-18 08:24:00,
2013-01-18 03:29:00,35.4,29.2,30.27,WNW,285,3.0,15.0,78,0.00,,,0.00,Wunderground v.1.15,2013-01-18 08:29:00,
2013-01-18 03:30:00,35.4,29.2,30.27,NW,315,3.0,15.0,78,0.00,,,-99.99,WeatherLink 6.0.0,2013-01-18 08:30:00,
2013-01-18 03:34:00,35.3,29.1,30.27,NE,43,1.0,6.0,78,0.00,,,0.00,Wunderground v.1.15,2013-01-18 08:34:00,
2013-01-18 03:39:00,35.2,29.0,30.27,WNW,287,3.0,6.0,78,0.00,,,0.00,Wunderground v.1.15,2013-01-18 08:39:00,
2013-01-18 03:44:00,35.1,29.2,30.27,NW,313,1.0,10.0,79,0.00,,,0.00,Wunderground v.1.15,2013-01-18 08:44:00,
2013-01-18 03:49:00,35.0,29.1,30.27,WNW,302,3.0,10.0,79,0.00,,,0.00,Wunderground v.1.15,2013-01-18 08:49:00,
2013-01-18 03:54:00,35.0,29.1,30.27,NNW,327,6.0,7.0,79,0.00,,,0.00,Wunderground v.1.15,2013-01-18 08:54:00,
2013-01-18 03:59:00,34.9,29.0,30.27,WNW,300,3.0,9.0,79,0.00,,,0.00,Wunderground v.1.15,2013-01-18 08:59:00,
2013-01-18 04:04:00,34.6,29.1,30.27,NW,311,2.0,6.0,80,0.00,,,0.00,Wunderground v.1.15,2013-01-18 09:04:00,
2013-01-18 04:09:00,34.4,29.2,30.27,WNW,303,3.0,6.0,81,0.00,,,0.00,Wunderground v.1.15,2013-01-18 09:09:00,
2013-01-18 04:14:00,34.4,29.2,30.28,NW,313,5.0,5.0,81,0.00,,,0.00,Wunderground v.1.15,2013-01-18 09:14:00,
2013-01-18 04:19:00,34.4,29.5,30.28,NW,321,1.0,5.0,82,0.00,,,0.00,Wunderground v.1.15,2013-01-18 09:19:00,
2013-01-18 04:24:00,34.4,29.8,30.27,NW,323,0.0,3.0,83,0.00,,,0.00,Wunderground v.1.15,2013-01-18 09:24:00,
2013-01-18 04:29:00,34.3,29.7,30.28,NW,323,2.0,3.0,83,0.00,,,0.00,Wunderground v.1.15,2013-01-18 09:29:00,
2013-01-18 04:34:00,34.0,29.4,30.28,NW,313,0.0,5.0,83,0.00,,,0.00,Wunderground v.1.15,2013-01-18 09:34:00,
2013-01-18 04:39:00,34.0,29.4,30.28,NW,309,2.0,5.0,83,0.00,,,0.00,Wunderground v.1.15,2013-01-18 09:39:00,
2013-01-18 04:44:00,34.0,29.4,30.28,WNW,294,2.0,3.0,83,0.00,,,0.00,Wunderground v.1.15,2013-01-18 09:44:00,
2013-01-18 04:49:00,33.9,29.3,30.28,WNW,296,0.0,1.0,83,0.00,,,0.00,Wunderground v.1.15,2013-01-18 09:49:00,
2013-01-18 04:55:00,34.1,29.5,30.28,WNW,295,0.0,1.0,83,0.00,,,0.00,Wunderground v.1.15,2013-01-18 09:55:00,
2013-01-18 05:00:00,34.4,29.8,30.28,WNW,296,0.0,0.0,83,0.00,,,0.00,Wunderground v.1.15,2013-01-18 10:00:00,
2013-01-18 05:05:00,34.4,29.2,30.28,WNW,295,0.0,6.0,81,0.00,,,0.00,Wunderground v.1.15,2013-01-18 10:05:00,
2013-01-18 05:10:00,34.2,29.0,30.28,WNW,295,0.0,1.0,81,0.00,,,0.00,Wunderground v.1.15,2013-01-18 10:10:00,
2013-01-18 05:15:00,34.1,28.6,30.29,WNW,303,0.0,2.0,80,0.00,,,0.00,Wunderground v.1.15,2013-01-18 10:15:00,
2013-01-18 05:20:00,34.0,29.1,30.29,WNW,303,0.0,1.0,82,0.00,,,0.00,Wunderground v.1.15,2013-01-18 10:20:00,
2013-01-18 05:25:00,33.8,28.9,30.29,WNW,303,2.0,2.0,82,0.00,,,0.00,Wunderground v.1.15,2013-01-18 10:25:00,
2013-01-18 05:30:00,33.4,28.5,30.29,WNW,303,0.0,0.0,82,0.00,,,0.00,Wunderground v.1.15,2013-01-18 10:30:00,
2013-01-18 05:35:00,33.0,28.7,30.30,WNW,303,0.0,1.0,84,0.00,,,0.00,Wunderground v.1.15,2013-01-18 10:35:00,
2013-01-18 05:40:00,32.8,29.1,30.30,WNW,303,0.0,0.0,86,0.00,,,0.00,Wunderground v.1.15,2013-01-18 10:40:00,
2013-01-18 05:45:00,32.5,28.8,30.30,WNW,303,0.0,0.0,86,0.00,,,0.00,Wunderground v.1.15,2013-01-18 10:45:00,
2013-01-18 05:50:00,32.1,28.4,30.30,WNW,303,0.0,0.0,86,0.00,,,0.00,Wunderground v.1.15,2013-01-18 10:50:00,
2013-01-18 05:55:00,31.9,28.5,30.30,WNW,303,0.0,0.0,87,0.00,,,0.00,Wunderground v.1.15,2013-01-18 10:55:00,
2013-01-18 06:01:00,31.5,28.4,30.30,WNW,303,0.0,0.0,88,0.00,,,0.00,Wunderground v.1.15,2013-01-18 11:01:00,
2013-01-18 06:06:00,31.2,28.6,30.31,WNW,303,0.0,0.0,90,0.00,,,0.00,Wunderground v.1.15,2013-01-18 11:06:00,
2013-01-18 06:11:00,30.9,28.3,30.31,WNW,303,0.0,0.0,90,0.00,,,0.00,Wunderground v.1.15,2013-01-18 11:11:00,
2013-01-18 06:16:00,30.7,28.1,30.31,WNW,303,0.0,0.0,90,0.00,,,0.00,Wunderground v.1.15,2013-01-18 11:16:00,
2013-01-18 06:21:00,30.7,28.4,30.31,WNW,303,0.0,0.0,91,0.00,,,0.00,Wunderground v.1.15,2013-01-18 11:21:00,
2013-01-18 06:26:00,30.6,28.3,30.32,WNW,303,0.0,0.0,91,0.00,,,0.00,Wunderground v.1.15,2013-01-18 11:26:00,
2013-01-18 06:31:00,30.6,28.0,30.32,WNW,303,0.0,0.0,90,0.00,,,0.00,Wunderground v.1.15,2013-01-18 11:31:00,
2013-01-18 06:36:00,30.6,28.0,30.32,WNW,303,0.0,1.0,90,0.00,,,0.00,Wunderground v.1.15,2013-01-18 11:36:00,
2013-01-18 06:41:00,30.7,28.1,30.33,WNW,303,0.0,0.0,90,0.00,,,0.00,Wunderground v.1.15,2013-01-18 11:41:00,
2013-01-18 06:46:00,30.7,28.1,30.33,WNW,303,0.0,0.0,90,0.00,,,0.00,Wunderground v.1.15,2013-01-18 11:46:00,
2013-01-18 06:51:00,30.7,28.4,30.33,WNW,303,0.0,0.0,91,0.00,,,0.00,Wunderground v.1.15,2013-01-18 11:51:00,
2013-01-18 06:56:00,30.6,28.3,30.33,WNW,303,0.0,1.0,91,0.00,,,0.00,Wunderground v.1.15,2013-01-18 11:56:00,
2013-01-18 07:01:00,30.7,28.7,30.33,WNW,303,0.0,0.0,92,0.00,,,0.00,Wunderground v.1.15,2013-01-18 12:01:00,
2013-01-18 07:06:00,30.6,28.8,30.33,WNW,303,0.0,2.0,93,0.00,,,0.00,Wunderground v.1.15,2013-01-18 12:06:00,
2013-01-18 07:11:00,30.2,28.2,30.33,WNW,303,0.0,0.0,92,0.00,,,0.00,Wunderground v.1.15,2013-01-18 12:11:00,
2013-01-18 07:16:00,29.9,27.9,30.34,WNW,303,0.0,1.0,92,0.00,,,0.00,Wunderground v.1.15,2013-01-18 12:16:00,
2013-01-18 07:21:00,30.1,28.1,30.34,NW,307,1.0,3.0,92,0.00,,,0.00,Wunderground v.1.15,2013-01-18 12:21:00,
2013-01-18 07:26:00,30.7,27.8,30.34,NW,304,2.0,4.0,89,0.00,,,0.00,Wunderground v.1.15,2013-01-18 12:26:00,
2013-01-18 07:31:00,31.3,27.9,30.35,WNW,300,1.0,2.0,87,0.00,,,0.00,Wunderground v.1.15,2013-01-18 12:31:00,
2013-01-18 07:37:00,31.5,27.8,30.35,WNW,300,0.0,3.0,86,0.00,,,0.00,Wunderground v.1.15,2013-01-18 12:37:00,
2013-01-18 07:42:00,31.7,27.4,30.35,WNW,300,0.0,1.0,84,0.00,,,0.00,Wunderground v.1.15,2013-01-18 12:42:00,
2013-01-18 07:47:00,31.7,27.7,30.36,WNW,300,1.0,1.0,85,0.00,,,0.00,Wunderground v.1.15,2013-01-18 12:47:00,
2013-01-18 07:52:00,31.2,27.5,30.36,WNW,300,0.0,0.0,86,0.00,,,0.00,Wunderground v.1.15,2013-01-18 12:52:00,
2013-01-18 07:57:00,30.8,27.4,30.37,WNW,300,0.0,1.0,87,0.00,,,0.00,Wunderground v.1.15,2013-01-18 12:57:00,
2013-01-18 08:02:00,30.7,27.6,30.37,WNW,300,0.0,0.0,88,0.00,,,0.00,Wunderground v.1.15,2013-01-18 13:02:00,
2013-01-18 08:07:00,31.1,28.0,30.37,NW,304,0.0,1.0,88,0.00,,,0.00,Wunderground v.1.15,2013-01-18 13:07:00,
2013-01-18 08:12:00,31.6,28.2,30.37,WNW,303,1.0,1.0,87,0.00,,,0.00,Wunderground v.1.15,2013-01-18 13:12:00,
2013-01-18 08:17:00,32.3,28.3,30.38,WNW,303,0.0,2.0,85,0.00,,,0.00,Wunderground v.1.15,2013-01-18 13:17:00,
2013-01-18 08:22:00,33.2,28.3,30.38,WNW,303,0.0,1.0,82,0.00,,,0.00,Wunderground v.1.15,2013-01-18 13:22:00,
2013-01-18 08:27:00,33.9,28.7,30.39,WNW,303,0.0,1.0,81,0.00,,,0.00,Wunderground v.1.15,2013-01-18 13:27:00,
2013-01-18 08:32:00,34.4,28.9,30.40,WNW,303,0.0,0.0,80,0.00,,,0.00,Wunderground v.1.15,2013-01-18 13:32:00,
2013-01-18 08:37:00,35.2,30.0,30.40,WNW,303,0.0,0.0,81,0.00,,,0.00,Wunderground v.1.15,2013-01-18 13:37:00,
2013-01-18 08:42:00,36.0,29.8,30.40,WNW,303,0.0,0.0,78,0.00,,,0.00,Wunderground v.1.15,2013-01-18 13:42:00,
2013-01-18 08:47:00,36.4,30.2,30.41,NNE,17,0.0,1.0,78,0.00,,,0.01,Wunderground v.1.15,2013-01-18 13:47:00,
2013-01-18 08:52:00,36.6,29.4,30.41,NW,325,0.0,2.0,75,0.00,,,0.01,Wunderground v.1.15,2013-01-18 13:52:00,
2013-01-18 08:57:00,36.8,27.6,30.41,NW,304,0.0,2.0,69,0.00,,,0.01,Wunderground v.1.15,2013-01-18 13:57:00,
2013-01-18 09:02:00,37.1,27.9,30.41,NW,322,1.0,9.0,69,0.00,,,0.01,Wunderground v.1.15,2013-01-18 14:02:00,
2013-01-18 09:07:00,37.4,29.5,30.41,NW,324,1.0,9.0,73,0.00,,,0.02,Wunderground v.1.15,2013-01-18 14:07:00,
2013-01-18 09:12:00,37.6,28.7,30.42,NNE,19,0.0,3.0,70,0.00,,,0.02,Wunderground v.1.15,2013-01-18 14:12:00,
2013-01-18 09:17:00,38.0,29.1,30.42,NE,41,0.0,3.0,70,0.00,,,0.02,Wunderground v.1.15,2013-01-18 14:17:00,
2013-01-18 09:22:00,38.3,29.7,30.42,NNE,28,0.0,1.0,71,0.04,,,0.03,Wunderground v.1.15,2013-01-18 14:22:00,
2013-01-18 09:27:00,38.9,30.3,30.43,NNE,29,0.0,1.0,71,0.04,,,0.03,Wunderground v.1.15,2013-01-18 14:27:00,
2013-01-18 09:32:00,39.2,28.8,30.43,NNE,30,0.0,1.0,66,0.04,,,0.03,Wunderground v.1.15,2013-01-18 14:32:00,
2013-01-18 09:37:00,39.3,28.1,30.43,NNE,15,0.0,4.0,64,0.00,,,0.03,Wunderground v.1.15,2013-01-18 14:37:00,
2013-01-18 09:42:00,39.4,29.3,30.44,NNE,14,0.0,2.0,67,0.00,,,0.03,Wunderground v.1.15,2013-01-18 14:42:00,
2013-01-18 09:48:00,39.5,29.8,30.44,NW,313,2.0,2.0,68,0.00,,,0.04,Wunderground v.1.15,2013-01-18 14:48:00,
2013-01-18 09:53:00,39.4,29.0,30.44,NW,313,2.0,3.0,66,0.00,,,0.04,Wunderground v.1.15,2013-01-18 14:53:00,
2013-01-18 09:58:00,39.5,30.9,30.45,NW,313,0.0,3.0,71,0.00,,,0.04,Wunderground v.1.15,2013-01-18 14:58:00,
2013-01-18 10:00:00,39.6,30.3,30.45,NW,315,0.0,4.0,69,0.03,,,-99.99,WeatherLink 6.0.0,2013-01-18 15:00:00,
2013-01-18 10:03:00,39.6,29.5,30.45,NW,313,0.0,1.0,67,0.00,,,0.04,Wunderground v.1.15,2013-01-18 15:03:00,
2013-01-18 10:08:00,39.8,30.1,30.45,NW,319,1.0,2.0,68,0.00,,,0.05,Wunderground v.1.15,2013-01-18 15:08:00,
2013-01-18 10:13:00,39.9,28.7,30.46,NW,319,0.0,2.0,64,0.00,,,0.05,Wunderground v.1.15,2013-01-18 15:13:00,
2013-01-18 10:18:00,40.0,28.8,30.46,NW,319,0.0,3.0,64,0.00,,,0.05,Wunderground v.1.15,2013-01-18 15:18:00,
2013-01-18 10:23:00,40.2,30.8,30.46,WNW,295,2.0,3.0,69,0.00,,,0.05,Wunderground v.1.15,2013-01-18 15:23:00,
2013-01-18 10:28:00,40.5,30.8,30.46,WNW,295,0.0,3.0,68,0.00,,,0.05,Wunderground v.1.15,2013-01-18 15:28:00,
2013-01-18 10:33:00,40.7,29.8,30.46,NW,315,0.0,3.0,65,0.02,,,-99.99,WeatherLink 6.0.0,2013-01-18 15:33:00,
2013-01-18 10:38:00,40.6,29.4,30.46,WNW,288,1.0,5.0,64,0.00,,,0.05,Wunderground v.1.15,2013-01-18 15:38:00,
2013-01-18 10:43:00,40.4,28.4,30.47,NW,308,3.0,5.0,62,0.00,,,0.05,Wunderground v.1.15,2013-01-18 15:43:00,
2013-01-18 10:48:00,40.4,30.3,30.47,WNW,287,0.0,5.0,67,0.00,,,0.05,Wunderground v.1.15,2013-01-18 15:48:00,
2013-01-18 10:53:00,40.7,29.5,30.46,NW,313,1.0,3.0,64,0.00,,,0.05,Wunderground v.1.15,2013-01-18 15:53:00,
2013-01-18 10:58:00,41.1,29.8,30.46,WNW,290,1.0,3.0,64,0.00,,,0.05,Wunderground v.1.15,2013-01-18 15:58:00,
2013-01-18 11:03:00,41.4,29.3,30.47,ENE,60,1.0,5.0,62,0.00,,,0.05,Wunderground v.1.15,2013-01-18 16:03:00,
2013-01-18 11:08:00,41.6,29.5,30.46,NW,315,1.0,5.0,62,0.00,,,0.06,Wunderground v.1.15,2013-01-18 16:08:00,
2013-01-18 11:14:00,41.5,29.4,30.46,WNW,302,1.0,5.0,62,0.00,,,0.06,Wunderground v.1.15,2013-01-18 16:14:00,
2013-01-18 11:19:00,41.7,30.8,30.46,NNW,329,0.0,5.0,65,0.00,,,0.06,Wunderground v.1.15,2013-01-18 16:19:00,
2013-01-18 11:24:00,42.2,29.7,30.46,WNW,292,3.0,4.0,61,0.00,,,0.06,Wunderground v.1.15,2013-01-18 16:24:00,
2013-01-18 11:29:00,42.2,28.5,30.46,North,11,1.0,4.0,58,0.00,,,0.06,Wunderground v.1.15,2013-01-18 16:29:00,
2013-01-18 11:34:00,42.3,31.4,30.46,WNW,288,7.0,7.0,65,0.00,,,0.06,Wunderground v.1.15,2013-01-18 16:34:00,
2013-01-18 11:39:00,42.5,29.6,30.46,NW,325,0.0,7.0,60,0.00,,,0.06,Wunderground v.1.15,2013-01-18 16:39:00,
2013-01-18 11:44:00,42.7,29.4,30.46,NE,40,0.0,4.0,59,0.00,,,0.06,Wunderground v.1.15,2013-01-18 16:44:00,
2013-01-18 11:49:00,43.1,30.6,30.46,North,360,0.0,4.0,61,0.00,,,0.07,Wunderground v.1.15,2013-01-18 16:49:00,
2013-01-18 11:54:00,43.3,29.9,30.46,WNW,299,1.0,3.0,59,0.00,,,0.07,Wunderground v.1.15,2013-01-18 16:54:00,
2013-01-18 11:59:00,43.4,30.0,30.45,NNE,19,3.0,4.0,59,0.00,,,0.07,Wunderground v.1.15,2013-01-18 16:59:00,
2013-01-18 12:04:00,43.7,29.5,30.45,NNW,330,2.0,7.0,57,0.00,,,0.07,Wunderground v.1.15,2013-01-18 17:04:00,
2013-01-18 12:09:00,43.9,30.1,30.45,WNW,292,0.0,7.0,58,0.00,,,0.07,Wunderground v.1.15,2013-01-18 17:09:00,
2013-01-18 12:14:00,44.4,31.0,30.44,East,87,1.0,4.0,59,0.00,,,0.07,Wunderground v.1.15,2013-01-18 17:14:00,
2013-01-18 12:19:00,44.8,28.2,30.44,NW,315,0.0,5.0,52,0.00,,,0.07,Wunderground v.1.15,2013-01-18 17:19:00,
2013-01-18 12:24:00,44.8,31.3,30.44,NNW,346,0.0,4.0,59,0.00,,,0.07,Wunderground v.1.15,2013-01-18 17:24:00,
2013-01-18 12:29:00,44.9,29.2,30.44,NW,322,0.0,4.0,54,0.00,,,0.07,Wunderground v.1.15,2013-01-18 17:29:00,
2013-01-18 12:34:00,45.0,32.3,30.44,NW,312,1.0,3.0,61,0.00,,,0.07,Wunderground v.1.15,2013-01-18 17:34:00,
2013-01-18 12:39:00,45.4,31.9,30.44,NW,315,0.0,3.0,59,0.00,,,0.07,Wunderground v.1.15,2013-01-18 17:39:00,
2013-01-18 12:44:00,46.2,30.0,30.43,NE,46,4.0,5.0,53,0.00,,,0.07,Wunderground v.1.15,2013-01-18 17:44:00,
2013-01-18 12:49:00,46.1,27.5,30.43,NE,37,0.0,5.0,48,0.00,,,0.07,Wunderground v.1.15,2013-01-18 17:49:00,
2013-01-18 12:54:00,46.3,31.0,30.43,WNW,296,1.0,5.0,55,0.00,,,0.07,Wunderground v.1.15,2013-01-18 17:54:00,
2013-01-18 12:59:00,46.4,28.3,30.43,WNW,299,0.0,6.0,49,0.00,,,0.07,Wunderground v.1.15,2013-01-18 17:59:00,
2013-01-18 13:04:00,46.8,28.6,30.43,WNW,302,2.0,4.0,49,0.00,,,0.07,Wunderground v.1.15,2013-01-18 18:04:00,
2013-01-18 13:09:00,46.5,27.8,30.43,WNW,296,4.0,4.0,48,0.00,,,0.07,Wunderground v.1.15,2013-01-18 18:09:00,
2013-01-18 13:14:00,46.2,27.1,30.42,ENE,77,3.0,3.0,47,0.00,,,0.07,Wunderground v.1.15,2013-01-18 18:14:00,
2013-01-18 13:19:00,47.2,31.4,30.42,East,98,0.0,3.0,54,0.00,,,0.07,Wunderground v.1.15,2013-01-18 18:19:00,
2013-01-18 13:24:00,48.3,30.0,30.42,NNE,22,0.0,3.0,49,0.00,,,0.07,Wunderground v.1.15,2013-01-18 18:24:00,
2013-01-18 13:29:00,48.6,28.2,30.42,WNW,293,0.0,4.0,45,0.00,,,0.07,Wunderground v.1.15,2013-01-18 18:29:00,
2013-01-18 13:34:00,48.9,28.5,30.42,NW,317,0.0,4.0,45,0.00,,,0.07,Wunderground v.1.15,2013-01-18 18:34:00,
2013-01-18 13:39:00,48.5,28.1,30.42,SW,224,3.0,4.0,45,0.00,,,0.07,Wunderground v.1.15,2013-01-18 18:39:00,
2013-01-18 13:44:00,48.0,27.6,30.42,SE,144,0.0,3.0,45,0.00,,,0.07,Wunderground v.1.15,2013-01-18 18:44:00,
2013-01-18 13:49:00,48.3,27.4,30.42,SW,214,0.0,4.0,44,0.00,,,0.07,Wunderground v.1.15,2013-01-18 18:49:00,
2013-01-18 13:54:00,48.6,30.3,30.42,ESE,117,2.0,5.0,49,0.00,,,0.07,Wunderground v.1.15,2013-01-18 18:54:00,
2013-01-18 13:59:00,48.5,29.7,30.42,East,92,3.0,6.0,48,0.00,,,0.07,Wunderground v.1.15,2013-01-18 18:59:00,
2013-01-18 14:04:00,48.4,28.5,30.41,SE,133,0.0,4.0,46,0.00,,,0.07,Wunderground v.1.15,2013-01-18 19:04:00,
2013-01-18 14:09:00,48.6,27.1,30.41,East,87,0.0,5.0,43,0.00,,,0.07,Wunderground v.1.15,2013-01-18 19:09:00,
2013-01-18 14:14:00,49.1,30.7,30.41,ENE,74,0.0,2.0,49,0.00,,,0.07,Wunderground v.1.15,2013-01-18 19:14:00,
2013-01-18 14:19:00,49.7,30.8,30.41,ENE,75,2.0,5.0,48,0.00,,,0.07,Wunderground v.1.15,2013-01-18 19:19:00,
2013-01-18 14:24:00,49.7,30.8,30.41,NNE,27,2.0,3.0,48,0.00,,,0.07,Wunderground v.1.15,2013-01-18 19:24:00,
2013-01-18 14:29:00,49.9,30.5,30.41,North,5,0.0,3.0,47,0.00,,,0.07,Wunderground v.1.15,2013-01-18 19:29:00,
2013-01-18 14:34:00,50.1,31.2,30.41,ESE,113,1.0,4.0,48,0.00,,,0.07,Wunderground v.1.15,2013-01-18 19:34:00,
2013-01-18 14:39:00,50.2,28.5,30.41,NNE,20,1.0,1.0,43,0.00,,,0.07,Wunderground v.1.15,2013-01-18 19:39:00,
2013-01-18 14:45:00,49.9,28.8,30.41,NNE,27,0.0,5.0,44,0.00,,,0.07,Wunderground v.1.15,2013-01-18 19:45:00,
2013-01-18 14:50:00,49.8,28.2,30.41,West,280,0.0,0.0,43,0.00,,,0.07,Wunderground v.1.15,2013-01-18 19:50:00,
2013-01-18 14:55:00,50.3,30.3,30.41,West,280,0.0,1.0,46,0.00,,,0.07,Wunderground v.1.15,2013-01-18 19:55:00,
2013-01-18 15:00:00,50.5,29.9,30.41,NNE,26,0.0,0.0,45,0.00,,,0.07,Wunderground v.1.15,2013-01-18 20:00:00,
2013-01-18 15:05:00,50.5,31.0,30.41,NE,42,0.0,1.0,47,0.00,,,0.07,Wunderground v.1.15,2013-01-18 20:05:00,
2013-01-18 15:10:00,50.1,28.4,30.41,NNE,31,0.0,1.0,43,0.00,,,0.07,Wunderground v.1.15,2013-01-18 20:10:00,
2013-01-18 15:15:00,49.5,29.0,30.42,NE,53,1.0,4.0,45,0.00,,,0.07,Wunderground v.1.15,2013-01-18 20:15:00,
2013-01-18 15:20:00,48.9,27.9,30.42,NE,40,1.0,2.0,44,0.00,,,0.07,Wunderground v.1.15,2013-01-18 20:20:00,
2013-01-18 15:25:00,48.1,26.6,30.42,ESE,117,0.0,3.0,43,0.00,,,0.07,Wunderground v.1.15,2013-01-18 20:25:00,
2013-01-18 15:30:00,47.8,29.0,30.42,ENE,59,2.0,2.0,48,0.00,,,0.07,Wunderground v.1.15,2013-01-18 20:30:00,
2013-01-18 15:35:00,47.9,29.1,30.42,NE,52,0.0,3.0,48,0.00,,,0.07,Wunderground v.1.15,2013-01-18 20:35:00,
2013-01-18 15:40:00,48.1,29.8,30.42,ENE,78,0.0,1.0,49,0.00,,,0.07,Wunderground v.1.15,2013-01-18 20:40:00,
2013-01-18 15:45:00,48.1,29.3,30.42,East,92,0.0,3.0,48,0.00,,,0.07,Wunderground v.1.15,2013-01-18 20:45:00,
2013-01-18 15:50:00,48.2,28.9,30.42,East,92,0.0,1.0,47,0.00,,,0.07,Wunderground v.1.15,2013-01-18 20:50:00,
2013-01-18 15:55:00,48.3,31.0,30.42,East,94,0.0,1.0,51,0.00,,,0.07,Wunderground v.1.15,2013-01-18 20:55:00,
2013-01-18 16:00:00,48.3,28.5,30.42,East,96,0.0,0.0,46,0.00,,,0.07,Wunderground v.1.15,2013-01-18 21:00:00,
2013-01-18 16:05:00,48.0,29.2,30.42,ESE,110,0.0,3.0,48,0.00,,,0.07,Wunderground v.1.15,2013-01-18 21:05:00,
2013-01-18 16:10:00,48.0,31.7,30.42,ESE,110,0.0,0.0,53,0.00,,,0.07,Wunderground v.1.15,2013-01-18 21:10:00,
2013-01-18 16:15:00,47.9,29.6,30.42,ESE,103,1.0,2.0,49,0.00,,,0.07,Wunderground v.1.15,2013-01-18 21:15:00,
2013-01-18 16:20:00,47.8,30.5,30.42,ESE,103,0.0,2.0,51,0.00,,,0.07,Wunderground v.1.15,2013-01-18 21:20:00,
2013-01-18 16:25:00,47.7,28.9,30.42,ESE,107,0.0,2.0,48,0.00,,,0.07,Wunderground v.1.15,2013-01-18 21:25:00,
2013-01-18 16:30:00,47.6,29.9,30.43,ESE,106,2.0,2.0,50,0.00,,,0.07,Wunderground v.1.15,2013-01-18 21:30:00,
2013-01-18 16:35:00,47.3,28.6,30.43,ESE,123,1.0,4.0,48,0.00,,,0.07,Wunderground v.1.15,2013-01-18 21:35:00,
2013-01-18 16:40:00,47.0,27.8,30.43,ESE,123,0.0,1.0,47,0.00,,,0.07,Wunderground v.1.15,2013-01-18 21:40:00,
2013-01-18 16:45:00,46.8,28.6,30.43,ESE,115,1.0,4.0,49,0.00,,,0.07,Wunderground v.1.15,2013-01-18 21:45:00,
2013-01-18 16:50:00,46.6,28.9,30.44,SE,128,0.0,1.0,50,0.00,,,0.07,Wunderground v.1.15,2013-01-18 21:50:00,
2013-01-18 16:55:00,46.3,29.6,30.44,SE,128,4.0,5.0,52,0.00,,,0.07,Wunderground v.1.15,2013-01-18 21:55:00,
2013-01-18 17:00:00,46.1,28.5,30.43,SE,137,1.0,2.0,50,0.00,,,0.07,Wunderground v.1.15,2013-01-18 22:00:00,
2013-01-18 17:05:00,46.0,27.9,30.44,SE,134,1.0,4.0,49,0.00,,,0.07,Wunderground v.1.15,2013-01-18 22:05:00,
2013-01-18 17:10:00,45.8,27.7,30.44,SE,134,0.0,1.0,49,0.00,,,0.07,Wunderground v.1.15,2013-01-18 22:10:00,
2013-01-18 17:15:00,45.7,28.6,30.44,SE,134,0.0,4.0,51,0.00,,,0.07,Wunderground v.1.15,2013-01-18 22:15:00,
2013-01-18 17:20:00,45.5,28.4,30.44,SE,134,0.0,0.0,51,0.00,,,0.07,Wunderground v.1.15,2013-01-18 22:20:00,
2013-01-18 17:25:00,45.2,28.6,30.45,SE,134,0.0,1.0,52,0.00,,,0.07,Wunderground v.1.15,2013-01-18 22:25:00,
2013-01-18 17:30:00,45.0,28.9,30.45,SE,134,0.0,0.0,53,0.00,,,0.07,Wunderground v.1.15,2013-01-18 22:30:00,
2013-01-18 17:35:00,44.6,29.0,30.45,SE,134,0.0,0.0,54,0.00,,,0.07,Wunderground v.1.15,2013-01-18 22:35:00,
2013-01-18 17:40:00,44.2,29.0,30.45,SE,134,0.0,0.0,55,0.00,,,0.07,Wunderground v.1.15,2013-01-18 22:40:00,
2013-01-18 17:45:00,43.8,29.5,30.45,SE,134,0.0,0.0,57,0.00,,,0.07,Wunderground v.1.15,2013-01-18 22:45:00,
2013-01-18 17:50:00,43.3,29.9,30.46,SE,134,0.0,0.0,59,0.00,,,0.07,Wunderground v.1.15,2013-01-18 22:50:00,
2013-01-18 17:55:00,42.7,29.8,30.46,SE,134,0.0,0.0,60,0.00,,,0.07,Wunderground v.1.15,2013-01-18 22:55:00,
2013-01-18 18:00:00,42.1,29.6,30.46,SE,134,0.0,0.0,61,0.00,,,0.07,Wunderground v.1.15,2013-01-18 23:00:00,
2013-01-18 18:05:00,41.5,29.8,30.46,SE,134,0.0,0.0,63,0.00,,,0.07,Wunderground v.1.15,2013-01-18 23:05:00,
2013-01-18 18:10:00,41.0,29.7,30.46,SE,134,0.0,0.0,64,0.00,,,0.07,Wunderground v.1.15,2013-01-18 23:10:00,
2013-01-18 18:15:00,40.5,29.3,30.47,SE,134,0.0,0.0,64,0.00,,,0.07,Wunderground v.1.15,2013-01-18 23:15:00,
2013-01-18 18:20:00,40.2,29.0,30.47,SE,134,0.0,0.0,64,0.00,,,0.07,Wunderground v.1.15,2013-01-18 23:20:00,
2013-01-18 18:25:00,39.9,29.5,30.47,SE,134,0.0,0.0,66,0.00,,,0.07,Wunderground v.1.15,2013-01-18 23:25:00,
2013-01-18 18:30:00,39.6,29.9,30.47,SE,134,0.0,0.0,68,0.00,,,0.07,Wunderground v.1.15,2013-01-18 23:30:00,
2013-01-18 18:35:00,39.3,29.6,30.47,SE,134,0.0,0.0,68,0.00,,,0.07,Wunderground v.1.15,2013-01-18 23:35:00,
2013-01-18 18:41:00,39.1,30.1,30.48,SE,134,0.0,0.0,70,0.00,,,0.07,Wunderground v.1.15,2013-01-18 23:41:00,
2013-01-18 18:46:00,39.1,31.8,30.47,SE,134,0.0,0.0,75,0.00,,,0.07,Wunderground v.1.15,2013-01-18 23:46:00,
2013-01-18 18:51:00,38.8,30.5,30.47,SE,134,0.0,0.0,72,0.00,,,0.07,Wunderground v.1.15,2013-01-18 23:51:00,
2013-01-18 18:56:00,38.3,31.1,30.48,SE,134,0.0,0.0,75,0.00,,,0.07,Wunderground v.1.15,2013-01-18 23:56:00,
2013-01-18 19:00:00,37.9,30.4,30.48,North,-999,0.0,0.0,74,0.00,,,-99.99,WeatherLink 6.0.0,2013-01-19 00:00:00,
2013-01-18 19:01:00,37.8,30.3,30.48,SE,134,0.0,0.0,74,0.00,,,0.07,Wunderground v.1.15,2013-01-19 00:01:00,
2013-01-18 19:06:00,37.5,30.9,30.48,SE,134,0.0,0.0,77,0.00,,,0.07,Wunderground v.1.15,2013-01-19 00:06:00,
2013-01-18 19:11:00,37.1,30.6,30.48,SE,134,0.0,0.0,77,0.00,,,0.07,Wunderground v.1.15,2013-01-19 00:11:00,
2013-01-18 19:16:00,36.8,29.6,30.48,SE,134,0.0,0.0,75,0.00,,,0.07,Wunderground v.1.15,2013-01-19 00:16:00,
2013-01-18 19:21:00,36.7,31.7,30.48,SE,134,0.0,0.0,82,0.00,,,0.07,Wunderground v.1.15,2013-01-19 00:21:00,
2013-01-18 19:26:00,36.7,30.8,30.48,SE,134,0.0,0.0,79,0.00,,,0.07,Wunderground v.1.15,2013-01-19 00:26:00,
2013-01-18 19:31:00,36.7,32.9,30.48,SE,134,0.0,0.0,86,0.00,,,0.07,Wunderground v.1.15,2013-01-19 00:31:00,
2013-01-18 19:36:00,36.8,31.8,30.48,SE,134,0.0,0.0,82,0.00,,,0.07,Wunderground v.1.15,2013-01-19 00:36:00,
2013-01-18 19:41:00,36.4,30.5,30.48,SE,134,0.0,0.0,79,0.00,,,0.07,Wunderground v.1.15,2013-01-19 00:41:00,
2013-01-18 19:46:00,36.0,30.4,30.48,SE,134,0.0,0.0,80,0.00,,,0.07,Wunderground v.1.15,2013-01-19 00:46:00,
2013-01-18 19:51:00,35.7,29.8,30.48,SE,134,0.0,0.0,79,0.00,,,0.07,Wunderground v.1.15,2013-01-19 00:51:00,
2013-01-18 19:56:00,35.5,29.9,30.48,SE,134,0.0,0.0,80,0.00,,,0.07,Wunderground v.1.15,2013-01-19 00:56:00,
2013-01-18 20:01:00,35.4,29.5,30.47,SE,134,0.0,0.0,79,0.00,,,0.07,Wunderground v.1.15,2013-01-19 01:01:00,
2013-01-18 20:06:00,35.5,29.3,30.47,SE,134,0.0,0.0,78,0.00,,,0.07,Wunderground v.1.15,2013-01-19 01:06:00,
2013-01-18 20:11:00,35.7,29.5,30.47,SE,134,0.0,0.0,78,0.00,,,0.07,Wunderground v.1.15,2013-01-19 01:11:00,
2013-01-18 20:16:00,35.7,29.5,30.48,SE,134,0.0,0.0,78,0.00,,,0.07,Wunderground v.1.15,2013-01-19 01:16:00,
2013-01-18 20:21:00,35.8,29.9,30.47,SE,134,0.0,0.0,79,0.00,,,0.07,Wunderground v.1.15,2013-01-19 01:21:00,
2013-01-18 20:26:00,35.7,29.8,30.47,SE,134,0.0,0.0,79,0.00,,,0.07,Wunderground v.1.15,2013-01-19 01:26:00,
2013-01-18 20:31:00,35.7,31.0,30.47,SE,134,0.0,0.0,83,0.00,,,0.07,Wunderground v.1.15,2013-01-19 01:31:00,
2013-01-18 20:36:00,35.5,30.8,30.48,SE,134,0.0,0.0,83,0.00,,,0.07,Wunderground v.1.15,2013-01-19 01:36:00,
2013-01-18 20:42:00,35.1,31.0,30.48,SE,134,0.0,0.0,85,0.00,,,0.07,Wunderground v.1.15,2013-01-19 01:42:00,
2013-01-18 20:47:00,34.5,30.5,30.48,SE,134,0.0,0.0,85,0.00,,,0.07,Wunderground v.1.15,2013-01-19 01:47:00,
2013-01-18 20:52:00,34.4,31.2,30.48,SE,134,0.0,0.0,88,0.00,,,0.07,Wunderground v.1.15,2013-01-19 01:52:00,
2013-01-18 20:57:00,34.2,30.2,30.48,SE,134,0.0,0.0,85,0.00,,,0.07,Wunderground v.1.15,2013-01-19 01:57:00,
2013-01-18 21:00:00,34.2,31.6,30.48,North,-999,0.0,0.0,90,0.00,,,-99.99,WeatherLink 6.0.0,2013-01-19 02:00:00,
2013-01-18 21:02:00,34.4,31.8,30.47,SE,134,0.0,1.0,90,0.00,,,0.07,Wunderground v.1.15,2013-01-19 02:02:00,
2013-01-18 21:07:00,34.0,30.5,30.48,SE,134,0.0,1.0,87,0.00,,,0.07,Wunderground v.1.15,2013-01-19 02:07:00,
2013-01-18 21:12:00,33.8,30.9,30.47,SE,134,0.0,0.0,89,0.00,,,0.07,Wunderground v.1.15,2013-01-19 02:12:00,
2013-01-18 21:17:00,33.4,29.7,30.48,SE,134,0.0,0.0,86,0.00,,,0.07,Wunderground v.1.15,2013-01-19 02:17:00,
2013-01-18 21:22:00,33.1,29.7,30.48,SE,134,0.0,0.0,87,0.00,,,0.07,Wunderground v.1.15,2013-01-19 02:22:00,
2013-01-18 21:27:00,32.9,29.5,30.48,SE,134,0.0,0.0,87,0.00,,,0.07,Wunderground v.1.15,2013-01-19 02:27:00,
2013-01-18 21:32:00,32.9,30.0,30.48,SE,134,0.0,0.0,89,0.00,,,0.07,Wunderground v.1.15,2013-01-19 02:32:00,
2013-01-18 21:37:00,33.2,30.3,30.48,SE,134,0.0,0.0,89,0.00,,,0.07,Wunderground v.1.15,2013-01-19 02:37:00,
2013-01-18 21:42:00,32.8,29.6,30.48,SE,134,0.0,0.0,88,0.00,,,0.07,Wunderground v.1.15,2013-01-19 02:42:00,
2013-01-18 21:47:00,32.6,29.7,30.48,SE,134,0.0,0.0,89,0.00,,,0.07,Wunderground v.1.15,2013-01-19 02:47:00,
2013-01-18 21:52:00,32.7,30.1,30.48,SE,134,0.0,0.0,90,0.00,,,0.07,Wunderground v.1.15,2013-01-19 02:52:00,
2013-01-18 21:57:00,32.7,29.8,30.48,SE,134,0.0,0.0,89,0.00,,,0.07,Wunderground v.1.15,2013-01-19 02:57:00,
2013-01-18 22:00:00,32.8,30.5,30.49,North,-999,0.0,0.0,91,0.00,,,-99.99,WeatherLink 6.0.0,2013-01-19 03:00:00,
2013-01-18 22:02:00,33.0,31.2,30.48,SE,134,0.0,0.0,93,0.00,,,0.07,Wunderground v.1.15,2013-01-19 03:02:00,
2013-01-18 22:07:00,33.1,30.8,30.48,SE,134,0.0,0.0,91,0.00,,,0.07,Wunderground v.1.15,2013-01-19 03:07:00,
2013-01-18 22:12:00,32.6,29.7,30.48,SE,134,0.0,0.0,89,0.00,,,0.07,Wunderground v.1.15,2013-01-19 03:12:00,
2013-01-18 22:17:00,32.1,29.2,30.48,SE,134,0.0,0.0,89,0.00,,,0.07,Wunderground v.1.15,2013-01-19 03:17:00,
2013-01-18 22:22:00,31.8,28.9,30.48,SE,134,0.0,0.0,89,0.00,,,0.07,Wunderground v.1.15,2013-01-19 03:22:00,
2013-01-18 22:27:00,31.7,29.1,30.48,SE,134,0.0,0.0,90,0.00,,,0.07,Wunderground v.1.15,2013-01-19 03:27:00,
2013-01-18 22:32:00,31.5,28.6,30.48,SE,134,0.0,0.0,89,0.00,,,0.07,Wunderground v.1.15,2013-01-19 03:32:00,
2013-01-18 22:37:00,31.4,28.8,30.48,SE,134,0.0,0.0,90,0.00,,,0.07,Wunderground v.1.15,2013-01-19 03:37:00,
2013-01-18 22:42:00,31.5,28.9,30.48,SE,134,0.0,0.0,90,0.00,,,0.07,Wunderground v.1.15,2013-01-19 03:42:00,
2013-01-18 22:47:00,31.5,28.9,30.48,SE,134,0.0,0.0,90,0.00,,,0.07,Wunderground v.1.15,2013-01-19 03:47:00,
2013-01-18 22:52:00,31.4,28.8,30.48,SE,134,0.0,0.0,90,0.00,,,0.07,Wunderground v.1.15,2013-01-19 03:52:00,
2013-01-18 22:57:00,31.3,28.7,30.48,SE,134,0.0,0.0,90,0.00,,,0.07,Wunderground v.1.15,2013-01-19 03:57:00,
2013-01-18 23:02:00,31.2,28.6,30.47,SE,134,0.0,0.0,90,0.00,,,0.07,Wunderground v.1.15,2013-01-19 04:02:00,
2013-01-18 23:07:00,31.2,28.3,30.47,SE,134,0.0,0.0,89,0.00,,,0.07,Wunderground v.1.15,2013-01-19 04:07:00,
2013-01-18 23:12:00,31.1,28.2,30.47,SE,134,0.0,0.0,89,0.00,,,0.07,Wunderground v.1.15,2013-01-19 04:12:00,
2013-01-18 23:18:00,30.9,28.0,30.47,SE,134,0.0,0.0,89,0.00,,,0.07,Wunderground v.1.15,2013-01-19 04:18:00,
2013-01-18 23:23:00,30.8,28.2,30.47,SE,134,0.0,0.0,90,0.00,,,0.07,Wunderground v.1.15,2013-01-19 04:23:00,
2013-01-18 23:28:00,30.8,28.2,30.47,SE,134,0.0,0.0,90,0.00,,,0.07,Wunderground v.1.15,2013-01-19 04:28:00,
2013-01-18 23:33:00,30.8,28.5,30.47,North,-999,0.0,0.0,91,0.00,,,-99.99,WeatherLink 6.0.0,2013-01-19 04:33:00,
2013-01-18 23:38:00,30.7,28.1,30.47,SE,134,0.0,0.0,90,0.00,,,0.07,Wunderground v.1.15,2013-01-19 04:38:00,
2013-01-18 23:43:00,30.5,27.6,30.46,SE,134,0.0,0.0,89,0.00,,,0.07,Wunderground v.1.15,2013-01-19 04:43:00,
2013-01-18 23:48:00,30.5,28.2,30.46,SE,134,0.0,0.0,91,0.00,,,0.07,Wunderground v.1.15,2013-01-19 04:48:00,
2013-01-18 23:53:00,30.4,27.8,30.47,SE,134,0.0,0.0,90,0.00,,,0.07,Wunderground v.1.15,2013-01-19 04:53:00,
2013-01-18 23:58:00,30.3,28.0,30.47,SE,134,0.0,0.0,91,0.00,,,0.07,Wunderground v.1.15,2013-01-19 04:58:00,